Total_Precipitation_Accumulation
0.00 0.03 0.07 0.10 0.23 0.19 0.02 0.00 0.00 0.00 0.00 0.00 0.00 0.00 0.00 0.00 0.01 0.07 0.03 0.00 0.00 0.03 0.14 0.14 0.16 0.13 0.12 0.10 0.12 0.12 0.14 0.22 0.27 0.26 0.23 0.14 0.12 0.04 0.01 0.01 0.02 0.03 0.04 0.05 0.06 0.08 0.07 0.04 0.00
0.01 0.05 0.14 0.24 0.31 0.07 0.00 0.00 0.00 0.00 0.00 0.00 0.00 0.00 0.00 0.00 0.00 0.00 0.01 0.01 0.00 0.02 0.08 0.13 0.12 0.13 0.13 0.18 0.25 0.21 0.18 0.19 0.19 0.12 0.11 0.10 0.08 0.02 0.01 0.02 0.04 0.04 0.06 0.07 0.07 0.13 0.09 0.03 0.01
0.01 0.05 0.14 0.27 0.11 0.01 0.00 0.00 0.00 0.00 0.00 0.00 0.00 0.00 0.00 0.00 0.00 0.00 0.01 0.00 0.00 0.02 0.08 0.08 0.08 0.12 0.14 0.20 0.23 0.22 0.18 0.12 0.09 0.09 0.09 0.09 0.04 0.02 0.03 0.03 0.03 0.04 0.06 0.04 0.06 0.06 0.04 0.02 0.01
0.02 0.09 0.19 0.17 0.01 0.00 0.00 0.00 0.00 0.00 0.00 0.00 0.00 0.00 0.00 0.00 0.00 0.00 0.00 0.00 0.01 0.04 0.08 0.04 0.09 0.12 0.13 0.23 0.26 0.24 0.14 0.04 0.07 0.13 0.14 0.12 0.06 0.06 0.07 0.04 0.03 0.03 0.03 0.05 0.09 0.07 0.03 0.02 0.00
0.04 0.19 0.28 0.10 0.00 0.00 0.00 0.00 0.00 0.00 0.00 0.00 0.00 0.00 0.01 0.00 0.00 0.00 0.00 0.01 0.02 0.05 0.10 0.06 0.13 0.11 0.11 0.21 0.26 0.23 0.20 0.13 0.12 0.20 0.21 0.22 0.13 0.10 0.09 0.05 0.03 0.02 0.03 0.09 0.20 0.17 0.05 0.03 0.00
0.10 0.25 0.51 0.25 0.01 0.00 0.00 0.00 0.00 0.00 0.00 0.00 0.00 0.00 0.01 0.00 0.00 0.00 0.00 0.01 0.01 0.01 0.05 0.05 0.09 0.10 0.11 0.15 0.17 0.12 0.14 0.22 0.26 0.21 0.26 0.48 0.29 0.14 0.07 0.03 0.01 0.01 0.02 0.07 0.15 0.16 0.07 0.01 0.00
0.16 0.37 0.39 0.14 0.01 0.00 0.00 0.00 0.00 0.00 0.00 0.00 0.00 0.00 0.00 0.01 0.00 0.00 0.00 0.00 0.01 0.01 0.00 0.00 0.01 0.03 0.05 0.08 0.12 0.10 0.12 0.18 0.27 0.22 0.26 0.41 0.21 0.06 0.03 0.02 0.00 0.01 0.01 0.03 0.06 0.08 0.06 0.01 0.00
0.06 0.17 0.13 0.02 0.00 0.00 0.00 0.00 0.00 0.00 0.00 0.00 0.00 0.00 0.00 0.01 0.00 0.00 0.00 0.01 0.02 0.02 0.04 0.02 0.01 0.01 0.02 0.01 0.03 0.07 0.11 0.09 0.18 0.19 0.23 0.23 0.07 0.02 0.02 0.01 0.01 0.01 0.02 0.03 0.04 0.05 0.03 0.01 0.00
0.04 0.09 0.05 0.00 0.00 0.00 0.00 0.00 0.00 0.00 0.00 0.00 0.00 0.00 0.00 0.00 0.00 0.00 0.01 0.02 0.03 0.04 0.09 0.07 0.02 0.01 0.01 0.03 0.01 0.04 0.05 0.03 0.05 0.09 0.12 0.10 0.02 0.00 0.01 0.02 0.02 0.02 0.03 0.03 0.04 0.03 0.02 0.00 0.00
0.06 0.08 0.02 0.00 0.00 0.00 0.00 0.00 0.00 0.00 0.00 0.00 0.00 0.00 0.00 0.00 0.00 0.00 0.01 0.02 0.02 0.02 0.03 0.05 0.03 0.01 0.01 0.02 0.06 0.17 0.05 0.02 0.01 0.00 0.01 0.02 0.00 0.01 0.00 0.01 0.04 0.04 0.03 0.03 0.04 0.03 0.01 0.01 0.00
0.14 0.06 0.01 0.00 0.00 0.00 0.00 0.00 0.00 0.00 0.00 0.00 0.00 0.00 0.00 0.00 0.00 0.00 0.00 0.01 0.00 0.00 0.01 0.03 0.02 0.01 0.01 0.03 0.05 0.10 0.07 0.04 0.02 0.00 0.00 0.00 0.00 0.00 0.00 0.00 0.03 0.02 0.01 0.01 0.02 0.02 0.01 0.00 0.00
0.19 0.07 0.01 0.00 0.00 0.00 0.00 0.00 0.00 0.00 0.00 0.00 0.00 0.00 0.00 0.00 0.00 0.00 0.00 0.01 0.00 0.00 0.01 0.01 0.02 0.02 0.01 0.00 0.01 0.02 0.01 0.01 0.03 0.01 0.03 0.01 0.00 0.00 0.01 0.02 0.02 0.03 0.02 0.02 0.05 0.04 0.03 0.01 0.00
0.11 0.04 0.00 0.00 0.00 0.00 0.00 0.00 0.00 0.00 0.00 0.00 0.00 0.00 0.00 0.00 0.00 0.00 0.00 0.01 0.01 0.01 0.01 0.01 0.01 0.03 0.02 0.01 0.00 0.00 0.00 0.01 0.01 0.01 0.02 0.02 0.01 0.01 0.02 0.05 0.06 0.08 0.08 0.10 0.10 0.07 0.04 0.02 0.00
0.05 0.02 0.00 0.00 0.00 0.00 0.00 0.00 0.00 0.00 0.00 0.00 0.00 0.00 0.00 0.00 0.00 0.00 0.00 0.01 0.02 0.02 0.03 0.02 0.02 0.03 0.03 0.02 0.00 0.00 0.00 0.00 0.01 0.01 0.02 0.03 0.02 0.03 0.03 0.08 0.10 0.15 0.17 0.24 0.23 0.10 0.05 0.04 0.01
0.03 0.02 0.00 0.00 0.00 0.00 0.00 0.00 0.00 0.00 0.00 0.00 0.00 0.00 0.00 0.00 0.00 0.00 0.00 0.02 0.04 0.07 0.08 0.08 0.07 0.07 0.07 0.06 0.04 0.01 0.01 0.00 0.00 0.01 0.02 0.03 0.03 0.04 0.05 0.11 0.11 0.12 0.13 0.20 0.40 0.29 0.06 0.01 0.00
0.02 0.01 0.00 0.00 0.00 0.00 0.00 0.00 0.00 0.00 0.00 0.00 0.00 0.00 0.00 0.00 0.00 0.00 0.00 0.02 0.06 0.13 0.17 0.17 0.14 0.13 0.14 0.13 0.11 0.08 0.05 0.02 0.00 0.01 0.02 0.03 0.03 0.03 0.05 0.11 0.10 0.11 0.13 0.14 0.24 0.35 0.17 0.03 0.01
0.02 0.01 0.00 0.00 0.00 0.00 0.00 0.00 0.00 0.00 0.00 0.00 0.00 0.00 0.00 0.00 0.00 0.00 0.00 0.01 0.07 0.17 0.25 0.24 0.18 0.19 0.23 0.22 0.22 0.18 0.12 0.06 0.02 0.01 0.03 0.04 0.05 0.04 0.04 0.08 0.08 0.08 0.10 0.15 0.17 0.32 0.37 0.17 0.05
0.04 0.02 0.01 0.00 0.00 0.00 0.00 0.00 0.00 0.00 0.00 0.00 0.00 0.00 0.00 0.00 0.00 0.00 0.00 0.01 0.05 0.14 0.22 0.29 0.32 0.40 0.40 0.34 0.28 0.23 0.16 0.10 0.04 0.02 0.04 0.06 0.07 0.06 0.07 0.09 0.08 0.07 0.07 0.11 0.14 0.25 0.34 0.19 0.08
0.04 0.02 0.01 0.00 0.00 0.00 0.00 0.00 0.00 0.00 0.00 0.00 0.00 0.00 0.00 0.00 0.00 0.00 0.00 0.01 0.04 0.13 0.20 0.32 0.56 0.85 0.88 0.58 0.36 0.26 0.18 0.12 0.07 0.03 0.05 0.10 0.10 0.09 0.11 0.14 0.11 0.10 0.10 0.11 0.14 0.32 0.64 0.28 0.16
0.03 0.01 0.00 0.00 0.00 0.00 0.00 0.00 0.00 0.00 0.00 0.00 0.00 0.00 0.00 0.00 0.00 0.00 0.00 0.02 0.07 0.19 0.32 0.42 0.59 0.84 0.84 0.60 0.38 0.28 0.21 0.14 0.10 0.07 0.07 0.12 0.11 0.17 0.19 0.16 0.15 0.12 0.10 0.10 0.12 0.17 0.39 0.26 0.18
0.03 0.02 0.00 0.00 0.00 0.00 0.00 0.00 0.00 0.00 0.00 0.00 0.00 0.00 0.00 0.00 0.00 0.00 0.00 0.01 0.04 0.13 0.23 0.34 0.42 0.52 0.52 0.43 0.31 0.28 0.22 0.17 0.17 0.12 0.11 0.13 0.12 0.17 0.26 0.21 0.20 0.18 0.12 0.10 0.10 0.09 0.09 0.22 0.18
0.01 0.01 0.00 0.00 0.00 0.00 0.00 0.00 0.00 0.00 0.00 0.00 0.00 0.00 0.00 0.00 0.00 0.00 0.00 0.00 0.02 0.05 0.11 0.19 0.25 0.28 0.28 0.23 0.23 0.29 0.32 0.30 0.23 0.15 0.13 0.18 0.20 0.21 0.31 0.24 0.24 0.22 0.19 0.13 0.09 0.09 0.07 0.13 0.16
0.00 0.00 0.00 0.00 0.00 0.00 0.00 0.00 0.00 0.00 0.00 0.00 0.00 0.00 0.00 0.00 0.00 0.00 0.00 0.00 0.00 0.01 0.02 0.05 0.08 0.08 0.09 0.10 0.13 0.19 0.18 0.23 0.30 0.21 0.17 0.23 0.26 0.22 0.24 0.25 0.22 0.20 0.18 0.16 0.15 0.18 0.15 0.12 0.08
0.00 0.00 0.00 0.00 0.00 0.00 0.00 0.00 0.00 0.00 0.00 0.00 0.00 0.00 0.00 0.00 0.00 0.00 0.00 0.00 0.00 0.01 0.01 0.02 0.03 0.03 0.02 0.03 0.05 0.07 0.10 0.21 0.50 0.52 0.38 0.39 0.42 0.28 0.18 0.19 0.22 0.18 0.16 0.17 0.16 0.15 0.14 0.17 0.13
0.00 0.00 0.00 0.00 0.00 0.00 0.00 0.00 0.00 0.00 0.00 0.00 0.00 0.00 0.00 0.00 0.00 0.00 0.00 0.00 0.00 0.00 0.01 0.01 0.02 0.03 0.03 0.03 0.03 0.05 0.09 0.14 0.42 0.64 0.54 0.43 0.46 0.42 0.27 0.20 0.17 0.15 0.15 0.16 0.17 0.16 0.09 0.08 0.10
0.00 0.00 0.00 0.00 0.01 0.00 0.00 0.00 0.00 0.00 0.00 0.00 0.00 0.00 0.00 0.00 0.00 0.00 0.00 0.00 0.01 0.01 0.01 0.02 0.03 0.06 0.07 0.04 0.02 0.04 0.06 0.08 0.15 0.29 0.35 0.34 0.29 0.32 0.26 0.19 0.17 0.18 0.17 0.14 0.13 0.14 0.11 0.05 0.05
0.00 0.00 0.00 0.00 0.00 0.00 0.00 0.00 0.00 0.00 0.00 0.00 0.00 0.00 0.00 0.00 0.00 0.00 0.00 0.00 0.01 0.02 0.02 0.03 0.05 0.12 0.14 0.13 0.11 0.08 0.07 0.13 0.20 0.20 0.25 0.36 0.35 0.30 0.24 0.17 0.17 0.18 0.16 0.12 0.09 0.08 0.07 0.08 0.07
0.00 0.00 0.00 0.00 0.00 0.00 0.00 0.00 0.00 0.00 0.00 0.00 0.00 0.00 0.00 0.00 0.00 0.00 0.00 0.00 0.01 0.02 0.03 0.02 0.04 0.10 0.23 0.34 0.31 0.24 0.23 0.27 0.49 0.54 0.33 0.30 0.38 0.36 0.27 0.19 0.16 0.15 0.13 0.11 0.09 0.07 0.09 0.15 0.17
0.00 0.00 0.00 0.00 0.00 0.01 0.02 0.01 0.00 0.01 0.00 0.00 0.00 0.00 0.00 0.00 0.00 0.00 0.00 0.01 0.02 0.02 0.01 0.01 0.02 0.07 0.14 0.17 0.19 0.22 0.30 0.38 0.59 0.78 0.66 0.45 0.35 0.30 0.26 0.17 0.12 0.10 0.09 0.08 0.08 0.07 0.08 0.13 0.19
0.02 0.02 0.02 0.02 0.02 0.04 0.09 0.03 0.00 0.01 0.01 0.01 0.00 0.00 0.00 0.00 0.00 0.00 0.00 0.01 0.01 0.01 0.01 0.00 0.01 0.05 0.11 0.12 0.09 0.11 0.20 0.32 0.36 0.38 0.43 0.35 0.21 0.14 0.15 0.12 0.08 0.08 0.08 0.07 0.06 0.06 0.07 0.06 0.08